Regional Weather Roundup
Issued by NWS

Home | Current Version | Previous Version | Graphics & Text | Print | Product List | Glossary On
Versions: 1 2 3 4 5 6 7 8 9 10 11 12 13 14 15 16 17 18 19 20 21 22 23 24 25 26 27 28 29 30 31 32 33 34 35 36 37 38 39 40 41 42 43 44 45 46 47 48 49 50
000
ASUS43 KTOP 190508
RWRKS

WEATHER ROUNDUP FOR KANSAS
NATIONAL WEATHER SERVICE GOODLAND KS
1100 PM CST THU DEC 18 2014

NOTE:  "FAIR" INDICATES FEW OR NO CLOUDS BELOW 12,000 FEET WITH NO
SIGNIFICANT WEATHER AND/OR OBSTRUCTIONS TO VISIBILITY.

KSZ001>006-013>018-027>032-041>047-190600-
NORTHWEST KANSAS

CITY           SKY/WX    TMP DP  RH WIND       PRES   REMARKS
GOODLAND       CLEAR     26  23  88 W6        30.11R
HAYS           CLOUDY    32  25  74 S7        30.20R
HILL CITY      CLOUDY    33  29  85 SW5       30.18R
RUSSELL        CLOUDY    30  29  96 SE9       30.20R
$$

KSZ061>065-074>080-084>089-190600-
SOUTHWEST KANSAS

CITY           SKY/WX    TMP DP  RH WIND       PRES   REMARKS
DODGE CITY     CLOUDY    33  30  88 SW7       30.18S
ELKHART          N/A     30  27  89 S3          N/A
GARDEN CITY    CLOUDY    33  32  96 S6        30.16S
GREAT BEND     CLOUDY    30  25  80 CALM      30.23S
LIBERAL        CLOUDY    36  30  80 CALM      30.18S
PRATT          CLOUDY    32  32 100 CALM      30.22R
$$

KSZ066>073-081>083-090>101-190600-
SOUTHEAST KANSAS

CITY           SKY/WX    TMP DP  RH WIND       PRES   REMARKS
CHANUTE        CLOUDY    34  33  96 CALM      30.25S FOG
COFFEYVILLE    CLOUDY    36  34  92 N6        30.25S
HUTCHINSON     CLOUDY    30  27  88 E3        30.24S FOG
MEDICINE LODGE   N/A     34  31  88 CALM      30.22S
NEWTON         CLOUDY    28  25  86 S3        30.26R
PARSONS        CLOUDY    36  34  92 CALM      30.26R
WICHITA INTL   CLOUDY    32  28  85 CALM      30.24S
WICHITA JABRA  CLOUDY    30  28  92 NE3       30.24S
WICHITA MCCONL CLOUDY    30  28  94 NE3       30.25S
WINFIELD       CLOUDY    34  32  92 N5        30.25S
$$

KSZ007>012-019>026-033>040-048>060-102>105-190600-
NORTHEAST KANSAS

CITY           SKY/WX    TMP DP  RH WIND       PRES   REMARKS
CONCORDIA      CLOUDY    29  27  92 SW5       30.24R
EMPORIA        CLOUDY    30  29  96 E3        30.25R
LAWRENCE       CLOUDY    32  28  85 E5        30.27R
MANHATTAN      CLOUDY    31  28  89 CALM      30.27R
MARYSVILLE     CLOUDY    30  28  93 CALM      30.25R
OLATHE IND     CLOUDY    32  30  92 VRB3      30.25S
OLATHE EXE     CLOUDY    32  30  92 E3        30.25R FOG
SALINA         CLOUDY    30  27  88 SE5       30.26R
TOPEKA BILLARD CLOUDY    33  30  88 CALM      30.27R
TOPEKA FORBES  CLOUDY    32  29  88 CALM      30.26R
$$



USA.gov is the U.S. government's official web portal to all federal, state and local government web resources and services.